This is the latest recevied weather packets stored in our database for station/object HB9FHL-13. If no packets are shown the sender has not sent any weather packets the latest 10 day(s).
| Time | Temp. | Humidity | Pressure | Rain* | Wind** | Luminosity | Snow |
|---|---|---|---|---|---|---|---|
| 1788130203 | 22.22° C | - | 1017.3 hPa | 0 mm | - | - | - |
| 1788129903 | 22.22° C | - | 1015 hPa | 0 mm | - | - | - |
| 1788129602 | 21.67° C | - | 1015.3 hPa | 0 mm | - | - | - |
| 1788129302 | 22.22° C | - | 1011.5 hPa | 0 mm | - | - | - |
| 1788129015 | 21.67° C | - | 1020.4 hPa | 0 mm | - | - | - |
| 1788128702 | 23.33° C | - | 1010.9 hPa | 0 mm | - | - | - |
| 1788128396 | 22.78° C | - | 1017.1 hPa | 0 mm | - | - | - |
| 1788128096 | 23.33° C | - | 1019.4 hPa | 0 mm | - | - | - |
| 1788127795 | 23.33° C | - | 1017.2 hPa | 0 mm | - | - | - |
| 1788127494 | 22.22° C | - | 1017.4 hPa | 0 mm | - | - | - |
| 1788127194 | 22.78° C | - | 1018.7 hPa | 0 mm | - | - | - |
| 1788126893 | 22.22° C | - | 1017.4 hPa | 0 mm | - | - | - |
| 1788126595 | 22.78° C | - | 1018.1 hPa | 0 mm | - | - | - |
| 1788126335 | 21.67° C | - | 1015.5 hPa | 0 mm | - | - | - |
| 1788126290 | 21.67° C | - | 1015.5 hPa | 0 mm | - | - | - |
| 1788125987 | 21.67° C | - | 1014.7 hPa | 0 mm | - | - | - |
| 1788125687 | 21.67° C | - | 1017.7 hPa | 0 mm | - | - | - |
| 1788125429 | 22.22° C | - | 1016.4 hPa | 0 mm | - | - | - |
| 1788125386 | 22.22° C | - | 1016.4 hPa | 0 mm | - | - | - |
| 1788125086 | 21.67° C | - | 1017.6 hPa | 0 mm | - | - | - |
| 1788124535 | 22.22° C | - | 1016.1 hPa | 0 mm | - | - | - |
| 1788124482 | 22.22° C | - | 1016.1 hPa | 0 mm | - | - | - |
| 1788124329 | 21.11° C | - | 1016.5 hPa | 0 mm | - | - | - |
| 1788124176 | 21.11° C | - | 1016.5 hPa | 0 mm | - | - | - |
| 1788123875 | 21.67° C | - | 1020.2 hPa | 0 mm | - | - | - |
* Rain since midnight (hover to see other rain measurements)
** Current wind speed in m/s (hover to see current wind gust speed)